shoulder
new_line
new_line
first
second
third
Al di la della Luna; Beyond the Moon; Astrophotography; Astrofotografia; Danilo Pivato
 
 
         
         
2016
Orbital Elements

Epoch 2015 Dec. 4.0 TT = JDT 2457360.5
T 2015 Nov. 15.72132 TT                                                    MPCW
q   0.8229673            (2000.0)                      P                     Q
z  -0.0003411      Peri.  340.35819     -0.90560050     -0.42050809
                          Node   186.14460     -0.28587999     +0.50883696
e   1.0002807       Incl.  148.87835     -0.31330554     +0.7511710
 
         
         
2016.01.17
   
         
         
         
         
         
         

 

       
 
Since: 01/01/2004
 
       
 
Since: 01/11/2010